STARLINK BC (44285 NORAD) Tracking and Keplerian Element Data

This shows tracking and keplerian element data for the satellite.

Feedback or suggestion? Click here.




ElementValue
Catalog44285
NameSTARLINK BC
Epoch Orbit454
Epoch Day166.17167104
Epoch Year2019
RAAN72.9402
Inclination53.0017
Eccentricity0.0022043
Argument of Perigee22.1759
Mean Anonmoly338.0177
Mean Motion15.04991463
Decay Rate-0.00966638
L11 44285U 19029BC 19166.17167104 -.00966638 00000-0 -72634-1 0 9997
L22 44285 53.0017 72.9402 0022043 22.1759 338.0177 15.04991463 4546

Live tracking and technical data element details for STARLINK BC (NORAD 44285). STARLINK BC can be tracked NOW for your location showing map with azimuth and elevation plus other details from your city location.

Track the satellite on the map from your city or location and see movement details for azimuth, elevation, latitude, longitude, range, height, and movement on the map or in text.







IsCatalogInMostPopularTable: catalog: 44285, numindb: 33
Update: records affected: 1



GetName: 44285 STARLINK BC

Hit Count: updated at: Fri, 19 Jul 2019 23:03:44 GMT